User: anonymous   Login
Location: Overspoor
(51.4747°N, 5.6641°E)
Time: 12:53:44
(UTC+01:00)
Language:

CZ-4C DEB - Orbit

View from above orbital plane
View from above orbital plane
View from above satellite
View from above satellite

Ground track
Ground track

The orbit data is extracted from the following two-line orbital elements,

1 35249U 07055D   22336.51588267  .00001603  00000-0  40654-3 0  9990
2 35249  97.8610 236.5325 0238517 224.2367 133.9537 14.36431379783846
Epoch (UTC): 02 December 2022 12:22:52
Eccentricity: 0.0238517
inclination: 97.8610°
perigee height: 600 km
apogee height: 941 km
right ascension of ascending node: 236.5325°
argument of perigee: 224.2367°
revolutions per day: 14.36431379
mean anomaly at epoch: 133.9537°
orbit number at epoch: 78384

The dashed part of the orbit path shows where the satellite is in the earth's shadow,  

DLR